When you browse on this site, cookies collect data to enhance your experience and personalize the content and advertising you see.
Visit our Privacy Policy to learn more. By continuing to use the site, you agree to this use of cookies and data.
  • In Switzerland
  • List of Countries
  • For 7 days
  • Water Temperature
  • Satellite Maps
  • Weather Map
  • Weather Widgets
  • user-avatar
    Login

    Hourly Weather Osh

    Today, 25 March, Monday

    Time Temperature Precipitation Wind Pressure Humidity
    00:00 +8°C° 0 mm 2 mps 660 mmHg 37%
    01:00 +8°C° 0 mm 2 mps 660 mmHg 36%
    02:00 +7°C° 0 mm 2 mps 660 mmHg 34%
    03:00 +7°C° 0 mm 2 mps 660 mmHg 33%
    04:00 +7°C° 0 mm 2 mps 660 mmHg 32%
    05:00 +5°C° 0 mm 3 mps 660 mmHg 31%
    06:00 +7°C° 0 mm 2 mps 660 mmHg 30%
    07:00 +8°C° 0 mm 2 mps 660 mmHg 29%
    08:00 +9°C° 0 mm 2 mps 660 mmHg 27%
    09:00 +12°C° 0 mm 2 mps 660 mmHg 24%
    10:00 +13°C° 0 mm 2 mps 660 mmHg 21%
    11:00 +15°C° 0 mm 2 mps 659 mmHg 18%
    12:00 +15°C° 0 mm 2 mps 659 mmHg 18%
    13:00 +16°C° 0 mm 2 mps 659 mmHg 18%
    14:00 +17°C° 0 mm 2 mps 659 mmHg 18%
    15:00 +17°C° 0 mm 2 mps 659 mmHg 18%
    16:00 +18°C° 0 mm 1 mps 660 mmHg 18%
    17:00 +18°C° 0 mm 1 mps 660 mmHg 18%
    18:00 +15°C° 0 mm 2 mps 661 mmHg 22%
    19:00 +14°C° 0 mm 2 mps 661 mmHg 26%
    20:00 +12°C° 0 mm 3 mps 662 mmHg 29%
    21:00 +11°C° 0 mm 3 mps 662 mmHg 29%
    22:00 +10°C° 0 mm 3 mps 662 mmHg 29%
    23:00 +10°C° 0 mm 3 mps 662 mmHg 28%

    Tomorrow, 26 March, Tuesday

    Time Temperature Precipitation Wind Pressure Humidity
    00:00 +9°C° 0 mm 3 mps 662 mmHg 28%
    01:00 +9°C° 0 mm 3 mps 662 mmHg 27%
    02:00 +9°C° 0 mm 3 mps 662 mmHg 26%
    03:00 +9°C° 0 mm 3 mps 662 mmHg 26%
    04:00 +8°C° 0 mm 3 mps 662 mmHg 25%
    05:00 +8°C° 0 mm 3 mps 662 mmHg 25%
    06:00 +9°C° 0 mm 3 mps 662 mmHg 24%
    07:00 +10°C° 0 mm 3 mps 661 mmHg 24%
    08:00 +12°C° 0 mm 2 mps 661 mmHg 23%
    09:00 +14°C° 0 mm 2 mps 661 mmHg 20%
    10:00 +16°C° 0 mm 2 mps 661 mmHg 17%
    11:00 +18°C° 0 mm 2 mps 660 mmHg 14%
    12:00 +19°C° 0 mm 2 mps 660 mmHg 14%
    13:00 +20°C° 0 mm 3 mps 659 mmHg 14%
    14:00 +21°C° 0 mm 3 mps 659 mmHg 13%
    15:00 +21°C° 0 mm 3 mps 659 mmHg 14%
    16:00 +20°C° 0 mm 3 mps 659 mmHg 16%
    17:00 +20°C° 0 mm 3 mps 658 mmHg 17%
    18:00 +19°C° 0 mm 2 mps 658 mmHg 20%
    19:00 +17°C° 0 mm 2 mps 658 mmHg 24%
    20:00 +16°C° 0 mm 1 mps 658 mmHg 27%
    21:00 +15°C° 0 mm 1 mps 658 mmHg 29%
    22:00 +15°C° 0 mm 1 mps 658 mmHg 30%
    23:00 +15°C° 0 mm 1 mps 657 mmHg 32%

    Day after tomorrow, 27 March, Wednesday

    Time Temperature Precipitation Wind Pressure Humidity
    00:00 +14°C° 0 mm 1 mps 657 mmHg 33%
    01:00 +14°C° 0 mm 1 mps 657 mmHg 34%
    02:00 +14°C° 0 mm 1 mps 657 mmHg 35%
    03:00 +13°C° 0 mm 1 mps 657 mmHg 36%
    04:00 +13°C° 0 mm 1 mps 657 mmHg 38%
    05:00 +12°C° 0 mm 1 mps 656 mmHg 40%
    06:00 +13°C° 0 mm 1 mps 657 mmHg 38%
    07:00 +14°C° 0 mm 1 mps 657 mmHg 36%
    08:00 +13°C° 0 mm 0 mps 657 mmHg 34%
    09:00 +15°C° 0 mm 1 mps 657 mmHg 32%
    10:00 +16°C° 0 mm 1 mps 657 mmHg 30%
    11:00 +17°C° 0 mm 2 mps 657 mmHg 28%
    12:00 +17°C° 0 mm 2 mps 656 mmHg 28%
    13:00 +18°C° 0 mm 3 mps 656 mmHg 28%
    14:00 +19°C° 0 mm 3 mps 655 mmHg 28%
    15:00 +19°C° 0 mm 3 mps 655 mmHg 29%
    16:00 +18°C° 0 mm 2 mps 655 mmHg 31%
    17:00 +17°C° 0 mm 2 mps 655 mmHg 32%
    18:00 +17°C° 0.1 mm 2 mps 656 mmHg 36%
    19:00 +16°C° 0.1 mm 1 mps 656 mmHg 40%
    20:00 +15°C° 0.1 mm 1 mps 657 mmHg 43%
    21:00 +14°C° 0.6 mm 1 mps 657 mmHg 49%
    22:00 +13°C° 0.6 mm 2 mps 657 mmHg 55%
    23:00 +12°C° 0.6 mm 2 mps 657 mmHg 61%

    28 March, Thursday

    Time Temperature Precipitation Wind Pressure Humidity
    00:00 +13°C° 0 mm 2 mps 656 mmHg 62%
    01:00 +13°C° 0 mm 2 mps 656 mmHg 62%
    02:00 +13°C° 0 mm 1 mps 656 mmHg 63%
    03:00 +13°C° 0.1 mm 1 mps 656 mmHg 65%
    04:00 +12°C° 0.1 mm 1 mps 656 mmHg 67%
    05:00 +12°C° 0.1 mm 1 mps 656 mmHg 70%
    06:00 +12°C° 0.4 mm 1 mps 656 mmHg 71%
    07:00 +12°C° 0.4 mm 1 mps 656 mmHg 73%
    08:00 +12°C° 0.4 mm 1 mps 657 mmHg 74%
    09:00 +12°C° 0.5 mm 1 mps 657 mmHg 72%
    10:00 +13°C° 0.5 mm 1 mps 657 mmHg 71%
    11:00 +13°C° 0.5 mm 2 mps 657 mmHg 69%
    12:00 +15°C° 0 mm 2 mps 657 mmHg 63%
    13:00 +16°C° 0 mm 2 mps 657 mmHg 58%
    14:00 +17°C° 0 mm 2 mps 657 mmHg 52%
    15:00 +17°C° 0 mm 2 mps 657 mmHg 53%
    16:00 +17°C° 0 mm 2 mps 657 mmHg 54%
    17:00 +16°C° 0 mm 2 mps 657 mmHg 55%
    18:00 +16°C° 0.1 mm 2 mps 658 mmHg 57%
    19:00 +16°C° 0.1 mm 3 mps 658 mmHg 60%
    20:00 +14°C° 0.1 mm 3 mps 658 mmHg 62%
    21:00 +14°C° 0 mm 3 mps 658 mmHg 61%
    22:00 +14°C° 0 mm 2 mps 657 mmHg 60%
    23:00 +13°C° 0 mm 2 mps 657 mmHg 60%

    29 March, Friday

    Time Temperature Precipitation Wind Pressure Humidity
    00:00 +13°C° 0 mm 2 mps 657 mmHg 58%
    01:00 +13°C° 0 mm 2 mps 656 mmHg 56%
    02:00 +12°C° 0 mm 1 mps 656 mmHg 54%
    03:00 +12°C° 0 mm 1 mps 656 mmHg 52%
    04:00 +12°C° 0 mm 1 mps 655 mmHg 50%
    05:00 +12°C° 0 mm 1 mps 655 mmHg 48%
    06:00 +13°C° 0 mm 1 mps 655 mmHg 47%
    07:00 +13°C° 0 mm 2 mps 656 mmHg 45%
    08:00 +14°C° 0 mm 2 mps 656 mmHg 43%
    09:00 +15°C° 0 mm 2 mps 656 mmHg 45%
    10:00 +16°C° 0 mm 2 mps 655 mmHg 46%
    11:00 +16°C° 0 mm 2 mps 655 mmHg 48%
    12:00 +17°C° 0 mm 2 mps 655 mmHg 47%
    13:00 +18°C° 0 mm 2 mps 654 mmHg 45%
    14:00 +19°C° 0 mm 3 mps 653 mmHg 44%
    15:00 +18°C° 0 mm 2 mps 653 mmHg 46%
    16:00 +18°C° 0 mm 2 mps 653 mmHg 49%
    17:00 +17°C° 0 mm 2 mps 652 mmHg 51%
    18:00 +18°C° 0 mm 1 mps 653 mmHg 54%
    19:00 +16°C° 0 mm 1 mps 653 mmHg 58%
    20:00 +16°C° 0 mm 1 mps 654 mmHg 61%
    21:00 +15°C° 0 mm 1 mps 653 mmHg 62%
    22:00 +15°C° 0 mm 1 mps 653 mmHg 63%
    23:00 +14°C° 0 mm 1 mps 653 mmHg 65%

    30 March, Saturday

    Time Temperature Precipitation Wind Pressure Humidity
    00:00 +14°C° 0 mm 1 mps 652 mmHg 67%
    01:00 +13°C° 0 mm 1 mps 652 mmHg 69%
    02:00 +12°C° 0 mm 1 mps 652 mmHg 71%
    03:00 +12°C° 0 mm 1 mps 652 mmHg 73%
    04:00 +12°C° 0 mm 2 mps 652 mmHg 75%
    05:00 +10°C° 0 mm 2 mps 652 mmHg 77%
    06:00 +10°C° 0 mm 2 mps 653 mmHg 77%
    07:00 +10°C° 0 mm 2 mps 653 mmHg 77%
    08:00 +10°C° 0 mm 2 mps 654 mmHg 77%
    09:00 +10°C° 0.3 mm 2 mps 654 mmHg 77%
    10:00 +10°C° 0.3 mm 3 mps 655 mmHg 77%
    11:00 +10°C° 0.3 mm 4 mps 655 mmHg 77%
    12:00 +10°C° 1 mm 3 mps 655 mmHg 77%
    13:00 +10°C° 1 mm 3 mps 655 mmHg 77%
    14:00 +9°C° 1 mm 2 mps 655 mmHg 76%
    15:00 +10°C° 0.4 mm 2 mps 655 mmHg 76%
    16:00 +10°C° 0.4 mm 2 mps 656 mmHg 75%
    17:00 +10°C° 0.4 mm 2 mps 656 mmHg 74%
    18:00 +9°C° 0.1 mm 2 mps 657 mmHg 76%
    19:00 +10°C° 0.1 mm 1 mps 657 mmHg 79%
    20:00 +10°C° 0.1 mm 1 mps 658 mmHg 81%
    21:00 +9°C° 0 mm 1 mps 658 mmHg 82%
    22:00 +9°C° 0 mm 1 mps 658 mmHg 82%
    23:00 +9°C° 0 mm 1 mps 658 mmHg 83%
    Show more